STARLINK-11438, 62888

Orbit data source: Space-Track

STARLINK-11438, 62888 is a payload satellite owned by SpaceX/Seattle (US) in LEO that was launched on Tue, 04 Feb 2025 UTC via an FALCON 9 launch vehicle from the Air Force Eastern Test Range (AFETR). Payload-class satellites include a variety of spacecraft equipped with specific instruments for various scientific and technological missions. These include communications satellites like Starlink; space stations such as the ISS; scientific satellites like the Hubble; Earth observation satellites from companies like Planet Labs, Umbra, and HawkEye 360; GPS; miniature CubeSats for education and research; and military/defense satellites.

Loading next visibility...
Identifier
62888, 2025-024K
Orbit
LEO
Country
Flag of USUS
Related business
Manufacturer
SpaceX/Seattle
Mission
Operational Commercial Communications
Bus & Motor
STARLINK V2MD, Unknown motor
Mass
960 kg wet, ~910 kg dry
Launch date (UTC)
2025-02-04 (9 months ago)
Launch vehicle
FALCON 9
Launch site
Air Force Eastern Test Range (AFETR)
Object type
Payload
Rocket body
Debris
Shape & HBR
Box + 2 Pan, 18.1 m
Radar Cross Section
36.964 m², Large (>1 m²)

Expand to show TLE details & history
Last TLE update: 23 hours ago

TLE from 23 hours ago
0 STARLINK-11438
1 62888U 25024K   25302.85964741  .00341365  00000-0  25280-2 0  9992
2 62888  42.9979 249.7682 0003594 286.8332  73.2142 15.71101347 42897
Epoch: 2025-10-29T20:37Z
TLE epoch observation values (Epoch: 2025-10-29T20:37:53.536Z)
Latitude
0.00004°
Longitude
-98.13157°
Altitude
354.821 km
Speed
7.699 km/s
True Right ascension
16h 39m 04s
True Declination
0° 00' 00"
Sunlit
Object was in daylight at epoch
Visualization orbit readout
Latitude
Unknown
Longitude
Unknown
Altitude
Unknown
Speed
Unknown
Apparent Right ascension
Unknown
Apparent Declination
Unknown
Sunlit
N/A
Visualization observer readout
Local Sidereal Time
14:56:47
Azimuth
Unknown
Elevation
Unknown
Doppler factor
Unknown
Orbital elements
Apogee altitude
360.151 km
Perigee altitude
355.309 km
Semi-major axis
6,735.867 km
Eccentricity
0.00036
Inclination
42.9979°
RAAN
249.7682°
Arg. of periapsis
286.8332°
True anomaly
73.25363°
Mean anomaly
73.2142°
Eccentric anomaly
73.23392°
Mean motion
3.92602 °/min
Orbital period
91.7 mins
BSTAR
0.002528
Loading maneuver chart data...
Computing Atmospheric mass density...
Loading historical data...
Loading historical data...
Loading historical data...
Loading historical data...
Loading historical data...
Loading historical data...
Loading historical data...

Documentation

Showing up to 5 results
|